FENGYUN 1C DEB

Satellite information

Favourite Embed

Satellite Type and Status

DEBRISIN ORBIT

Key statistics

Satellite FENGYUN 1C DEB at a glance.

Uptime

9715

Days in orbit

Revolutions

≈ 14.7

Per day

Orbit

SSO

Sun Synchronous Orbit

Inclination

97.9

Latest

Satellite identification and parameters

Extended collection of information and parameters for FENGYUN 1C DEB.

Object identification

Identified? True

Debris? True

Object name: FENGYUN 1C DEB

International designator: 1999-025CEL

Object number (NORAD): 31737

Object ID (CCSDS): 31737

Country: PEOPLES REPUBLIC OF CHINA (PRC)

Current information (Y/N): Y

RCS size: SMALL

Orbital parameters

Period: 98.044 minutes

Inclination: 97.9176 deg

SMA: 7043.273 km

Apoapsis: 770.016 km

Periapsis: 560.26 km

RAAN: 19.1358 deg

Eccentricy: 0.01489053

Argument of periapsis: 19.4036 deg

Mean anomaly: 130.9872 deg

Mean motion: 14.687266 rev/day

Mean motion (dot): 0.0000603 rev/day2

B* drag term: 0.00088130791 1/REarth

Two-line elements (TLE)

Creation date: Dec. 11, 2025, 7:14 p.m.

Reference frame: TEME

Reference center: EARTH

Epoch: Dec. 11, 2025, 2:02 p.m. UTC

TLE line 0: 0 FENGYUN 1C DEB

TLE line 1: 1 31737U 99025CEL 25345.58533263 .00006030 00000-0 88131-3 0 9993

TLE line 2: 2 31737 97.9176 19.1358 0148905 19.4036 130.9872 14.68726600981827

Live tracking on map

Real-time ground track for satellite FENGYUN 1C DEB.

In-orbit conjunctions

A list of the most updated potential collisions computed for object FENGYUN 1C DEB.

Target Orbit TCA Probability of collision Miss distance Type
ELECTRON KICK STAGE R/B LEO 2025-12-15 12:26:42 0.0001548157 304.0 (m) ROCKET BODY
DMSP 5D-2 F14 DEB SSO 2024-09-24 11:21:34 0.002061149 392.0 (m) DEBRIS

Associated space launch

Chinese polar orbiting meteorological satellite

FENGYUN 1C DEB was lifted into orbit during the mission ‘Long March 4B | Feng Yun 1C’, on board a Long March 4B space rocket.

The launch took place on May 10, 1999, 1:33 a.m. from Launch Complex 7.

For more information about the launch, click the button.

Launch to space Long March 4B | Feng Yun 1C
Long March 4B | Feng Yun 1C

Agency: N/A

Status: Launch Successful

Launch date: May 10, 1999, 1:33 a.m. UTC

Rocket: Long March 4B

Launch pad: Launch Complex 7

Location: Taiyuan Satellite Launch Center, People's Republic of China

...

Latest news about this satellite

There are no fresh news available about this satellite. Check back as we update our databases every day.


Newsletter sign-up

Weekly statistics, charts and insights to help you stay on top of the space industry.